Bluffton, MN

5:54 PM CDT on October 01, 2016 (GMT -0500)
Wadena Municipal

Weather History for KADC - December, 2013

Change the Weather History Date:

Monday, December 2, 2013

  Actual Average Record
Temperature  
Mean Temperature 24 °F -  
Max Temperature 28 °F 25 °F 56 °F (1941)
Min Temperature 21 °F 7 °F -25 °F (1976)
Degree Days  
Heating Degree Days 40    
Moisture  
Dew Point 25 °F    
Average Humidity 96    
Maximum Humidity 100    
Minimum Humidity 93    
Precipitation  
Precipitation 0.16 in - - ()
Sea Level Pressure  
Sea Level Pressure 29.64 in    
Wind  
Wind Speed 8 mph (East)    
Max Wind Speed 10 mph    
Max Gust Speed -    
Visibility 2 miles    
Events Snow    
Averages and records for this station are not official NWS values.
T = Trace of Precipitation, MM = Missing Value Source: NWS Daily Summary

Daily Weather History Graph

Daily Weather History Graph

Search for Another Location

Airport or City:

Trip Planner

Search our weather history database for the weather conditions in past years. The results will help you decide how hot, cold, wet, or windy it might be!

Date:

Astronomy

Dec. 02, 2013 Rise Set
Actual Time 7:45 AM CST 4:35 PM CST
Civil Twilight 7:11 AM CST 5:09 PM CST
Nautical Twilight 6:33 AM CST 5:47 PM CST
Astronomical Twilight 5:56 AM CST 6:23 PM CST
Moon 7:09 AM CST (12/2) 4:40 PM CST (12/2)
Length of Visible Light 9h 58m
Length of Day
8h 49m
Waning Crescent, 0% of the Moon is Illuminated
Dec 2
Waning Crescent
Dec 2
New
Dec 9
First Quarter
Dec 17
Full
Dec 25
Last Quarter

Hourly Weather History & Observations

Time (CST) Temp. Windchill Dew Point Humidity Pressure Visibility Wind Dir Wind Speed Gust Speed Precip Events Conditions
12:15 AM 21.2 °F 12.6 °F 21.2 °F 100% 29.84 in 3.0 mi East 6.9 mph - N/A Snow Light Snow
12:35 AM 21.2 °F 13.6 °F 21.2 °F 100% 29.83 in 4.0 mi ESE 5.8 mph - N/A   Mist
12:53 AM 23.0 °F 15.8 °F 21.2 °F 93% 29.82 in 2.5 mi East 5.8 mph - N/A Snow Light Snow
1:15 AM 23.0 °F 14.7 °F 21.2 °F 93% 29.81 in 4.0 mi East 6.9 mph - N/A   Mist
1:35 AM 23.0 °F 13.9 °F 21.2 °F 93% 29.80 in 5.0 mi East 8.1 mph - N/A   Mist
1:53 AM 23.0 °F 13.9 °F 21.2 °F 93% 29.80 in 2.0 mi ESE 8.1 mph - N/A Snow Light Snow
2:15 AM 23.0 °F 13.9 °F 21.2 °F 93% 29.80 in 4.0 mi East 8.1 mph - N/A   Mist
2:35 AM 23.0 °F 12.4 °F 21.2 °F 93% 29.79 in 5.0 mi East 10.4 mph - N/A   Mist
2:53 AM 23.0 °F 12.4 °F 21.2 °F 93% 29.78 in 5.0 mi ESE 10.4 mph - N/A   Mist
3:15 AM 23.0 °F 13.9 °F 21.2 °F 93% 29.77 in 5.0 mi East 8.1 mph - N/A   Mist
3:35 AM 23.0 °F 13.9 °F 21.2 °F 93% 29.76 in 4.0 mi ESE 8.1 mph - N/A   Mist
3:53 AM 23.0 °F 13.9 °F 21.2 °F 93% 29.75 in 4.0 mi East 8.1 mph - N/A   Mist
4:15 AM 23.0 °F 13.9 °F 21.2 °F 93% 29.75 in 4.0 mi East 8.1 mph - N/A   Mist
4:34 AM 23.0 °F 13.9 °F 21.2 °F 93% 29.74 in 4.0 mi East 8.1 mph - N/A   Mist
4:52 AM 23.0 °F 13.1 °F 21.2 °F 93% 29.73 in 4.0 mi East 9.2 mph - N/A   Mist
5:14 AM 23.0 °F 13.1 °F 21.2 °F 93% 29.72 in 4.0 mi East 9.2 mph - N/A   Mist
5:35 AM 24.8 °F 16.1 °F 23.0 °F 93% 29.71 in 4.0 mi East 8.1 mph - N/A   Mist
5:53 AM 24.8 °F 14.6 °F 23.0 °F 93% 29.70 in 4.0 mi East 10.4 mph - N/A   Unknown
6:15 AM 24.8 °F 14.6 °F 23.0 °F 93% 29.70 in 4.0 mi ESE 10.4 mph - N/A   Mist
6:35 AM 24.8 °F 16.1 °F 23.0 °F 93% 29.69 in 2.0 mi East 8.1 mph - N/A Snow Light Snow
6:53 AM 24.8 °F 14.6 °F 23.0 °F 93% 29.69 in 2.5 mi East 10.4 mph - N/A Snow Light Snow
7:15 AM 24.8 °F 16.1 °F 23.0 °F 93% 29.68 in 1.2 mi East 8.1 mph - N/A Snow Light Snow
7:34 AM 24.8 °F 15.3 °F 23.0 °F 93% 29.67 in 1.8 mi East 9.2 mph - N/A Snow Light Snow
7:52 AM 24.8 °F 16.1 °F 23.0 °F 93% 29.67 in 2.0 mi East 8.1 mph - N/A Snow Light Snow
8:15 AM 24.8 °F 15.3 °F 23.0 °F 93% 29.66 in 1.2 mi East 9.2 mph - N/A Snow Light Snow
8:35 AM 24.8 °F 14.6 °F 23.0 °F 93% 29.66 in 1.2 mi ESE 10.4 mph - N/A Snow Light Snow
8:52 AM 24.8 °F 15.3 °F 24.8 °F 100% 29.65 in 0.8 mi East 9.2 mph - 0.01 in Snow Light Snow
9:14 AM 24.8 °F 15.3 °F 24.8 °F 100% 29.65 in 0.5 mi East 9.2 mph - N/A Snow Snow
9:35 AM 24.8 °F 14.6 °F 24.8 °F 100% 29.64 in 0.2 mi East 10.4 mph - 0.01 in Snow Snow
9:53 AM 26.6 °F 18.2 °F 24.8 °F 93% 29.64 in 0.5 mi East 8.1 mph - 0.01 in Snow Light Snow
10:15 AM 26.6 °F 17.5 °F 24.8 °F 93% 29.63 in 1.0 mi East 9.2 mph - N/A Snow Light Snow
10:34 AM 26.6 °F 18.2 °F 24.8 °F 93% 29.63 in 0.8 mi ESE 8.1 mph - 0.01 in Snow Light Snow
10:52 AM 26.6 °F 16.8 °F 26.6 °F 100% 29.63 in 0.5 mi ESE 10.4 mph - 0.01 in Snow Light Snow
11:15 AM 26.6 °F 16.8 °F 26.6 °F 100% 29.62 in 1.0 mi ESE 10.4 mph - 0.01 in Snow Light Snow
11:34 AM 28.4 °F 19.1 °F 26.6 °F 93% 29.62 in 1.5 mi ESE 10.4 mph - 0.01 in Snow Light Snow
11:52 AM 28.4 °F 19.1 °F 26.6 °F 93% 29.61 in 1.2 mi ESE 10.4 mph - 0.02 in Snow Light Snow
12:15 PM 28.4 °F 21.2 °F 26.6 °F 93% 29.60 in 1.2 mi East 6.9 mph - N/A Snow Light Snow
12:34 PM 28.4 °F 19.7 °F 26.6 °F 93% 29.59 in 1.5 mi East 9.2 mph - 0.01 in Snow Light Snow
12:52 PM 28.4 °F 20.4 °F 26.6 °F 93% 29.58 in 1.2 mi East 8.1 mph - 0.01 in Snow Light Snow
1:14 PM 28.4 °F 20.4 °F 26.6 °F 93% 29.58 in 1.0 mi East 8.1 mph - 0.01 in Snow Light Snow
1:35 PM 28.4 °F 20.4 °F 26.6 °F 93% 29.58 in 0.8 mi East 8.1 mph - 0.01 in Snow Light Snow
1:53 PM 28.4 °F 19.7 °F 26.6 °F 93% 29.57 in 0.8 mi East 9.2 mph - 0.01 in Snow Light Snow
2:15 PM 28.4 °F 19.1 °F 26.6 °F 93% 29.57 in 0.8 mi East 10.4 mph - N/A Snow Light Snow
2:35 PM 28.4 °F 20.4 °F 26.6 °F 93% 29.56 in 0.5 mi East 8.1 mph - N/A Snow Light Snow
2:53 PM 28.4 °F 21.2 °F 28.4 °F 100% 29.56 in 0.2 mi East 6.9 mph - N/A Snow Snow
3:15 PM 28.4 °F 19.7 °F 28.4 °F 100% 29.56 in 0.2 mi East 9.2 mph - 0.01 in Snow Snow
3:35 PM 28.4 °F 20.4 °F 28.4 °F 100% 29.55 in 0.2 mi East 8.1 mph - 0.01 in Snow Snow
3:52 PM 28.4 °F 19.1 °F 26.6 °F 93% 29.55 in 0.2 mi East 10.4 mph - 0.01 in Snow Snow
4:14 PM 28.4 °F 19.7 °F 26.6 °F 93% 29.55 in 0.2 mi ENE 9.2 mph - N/A Snow Snow
4:35 PM 28.4 °F 19.7 °F 28.4 °F 100% 29.54 in 0.2 mi East 9.2 mph - N/A Snow Snow
4:53 PM 28.4 °F 19.7 °F 28.4 °F 100% 29.55 in 1.0 mi East 9.2 mph - N/A Snow Light Snow
5:14 PM 28.4 °F 21.2 °F 28.4 °F 100% 29.55 in 0.8 mi East 6.9 mph - 0.01 in Snow Snow
5:35 PM 28.4 °F 22.2 °F 28.4 °F 100% 29.57 in 0.8 mi East 5.8 mph - 0.02 in Snow Snow
5:53 PM 28.4 °F 23.3 °F 28.4 °F 100% 29.57 in 0.8 mi ENE 4.6 mph - 0.02 in Snow Light Snow
6:15 PM 28.4 °F 24.6 °F 28.4 °F 100% 29.57 in 0.8 mi ENE 3.5 mph - N/A Snow Light Snow
6:35 PM 28.4 °F 22.2 °F 28.4 °F 100% 29.57 in 1.0 mi ENE 5.8 mph - 0.01 in Snow Light Snow
6:53 PM 28.4 °F 22.2 °F 28.4 °F 100% 29.57 in 1.0 mi ENE 5.8 mph - 0.01 in Snow Light Snow
7:15 PM 28.4 °F 22.2 °F 28.4 °F 100% 29.58 in 0.8 mi NE 5.8 mph - N/A Snow Light Snow
7:35 PM 28.4 °F 22.2 °F 28.4 °F 100% 29.58 in 1.0 mi NE 5.8 mph - N/A Snow Light Snow
7:52 PM 28.4 °F 22.2 °F 28.4 °F 100% 29.58 in 1.0 mi NE 5.8 mph - N/A Snow Light Snow
8:14 PM 28.4 °F 21.2 °F 28.4 °F 100% 29.58 in 0.8 mi NE 6.9 mph - 0.01 in Snow Snow
8:34 PM 28.4 °F 21.2 °F 28.4 °F 100% 29.57 in 1.0 mi NE 6.9 mph - 0.01 in Snow Light Snow
8:52 PM 28.4 °F 21.2 °F 28.4 °F 100% 29.57 in 1.2 mi NE 6.9 mph - 0.01 in Snow Light Snow
9:14 PM 28.4 °F 21.2 °F 28.4 °F 100% 29.58 in 2.5 mi ENE 6.9 mph - N/A Snow Light Snow
9:34 PM 28.4 °F 22.2 °F 28.4 °F 100% 29.59 in 2.5 mi NE 5.8 mph - N/A Snow Light Snow
9:53 PM 28.4 °F 22.2 °F 28.4 °F 100% 29.59 in 3.0 mi NE 5.8 mph - N/A Snow Light Snow
10:15 PM 28.4 °F 23.3 °F 28.4 °F 100% 29.60 in 3.0 mi NE 4.6 mph - 0.01 in   Mist
10:35 PM 28.4 °F 23.3 °F 28.4 °F 100% 29.60 in 3.0 mi NE 4.6 mph - 0.03 in   Mist
10:52 PM 28.4 °F 22.2 °F 28.4 °F 100% 29.60 in 3.0 mi NE 5.8 mph - 0.04 in   Mist
11:15 PM 28.4 °F 22.2 °F 28.4 °F 100% 29.59 in 3.0 mi NE 5.8 mph - N/A Snow Light Snow
11:35 PM 28.4 °F 22.2 °F 28.4 °F 100% 29.59 in 3.0 mi NE 5.8 mph - N/A Snow Light Snow
11:53 PM 28.4 °F 21.2 °F 28.4 °F 100% 29.59 in 3.0 mi NE 6.9 mph - N/A   Mist